Date String (YYYY-MM-DD hh:mm:ss) UTC,Instrument flags,absolute air pressure of the measurement (hPa),sample flow rate (lpm),inlet stack bypass flow (lpm),air temperature of the measurement (°C),ambient temperature measured by the external sensor (°C),aerosol sample conditioner tube jacket temperature (°C),OPC LED temperature (°C),internal box temperature (°C),relative humidity of the measurement (%),span deviation,mass concentration of particles derived from Lorenz-Mie calculation of OPC scattering (μg/m³),mass concentration of particles derived from Lorenz-Mie calculation of OPC scattering (μg/m³),mass concentration of particles derived from Lorenz-Mie calculation of OPC scattering (μg/m³)
DateTimeUTC,F1_M11,P_M11,Q1_M11,Q2_M11,T1_M11,T2_M11,T3_M11,T4_M11,T5_M11,U1_M11,ZSPAN_M11,X0_M11,X2_M11,X1_M11
2024-03-08 15:00:00,SystemResetWarning,0831.7,5.01,000.00,019.2,018.8,000.0,027.6,021.0,18.1,0000.0,0004.05,0003.36,0003.26
2024-03-08 15:01:00,SystemResetWarning,0831.7,4.99,000.00,019.2,018.6,000.0,027.6,020.9,18.1,0000.0,0004.02,0003.35,0003.24
2024-03-08 15:02:00,SystemResetWarning,0831.7,5.00,000.00,019.1,018.5,000.0,027.6,020.8,18.1,0000.0,0003.98,0003.34,0003.24
2024-03-08 15:03:00,SystemResetWarning,0831.8,5.00,000.00,019.1,018.3,000.0,027.6,020.8,18.2,0000.0,0003.97,0003.33,0003.24
2024-03-08 15:04:00,SystemResetWarning,0832.1,5.01,000.00,019.0,018.2,000.0,027.6,020.7,18.3,0000.0,0003.96,0003.33,0003.25
2024-03-08 15:05:00,SystemResetWarning,0832.0,5.01,000.00,019.0,018.1,000.0,027.6,020.6,18.3,0000.0,0003.99,0003.35,0003.25
2024-03-08 15:06:00,SystemResetWarning,0831.8,5.00,000.00,018.9,017.9,000.0,027.6,020.6,18.4,0000.0,0004.04,0003.36,0003.26
2024-03-08 15:07:00,SystemResetWarning,0831.8,4.99,000.00,018.9,017.9,000.0,027.6,020.5,18.5,0000.0,0004.01,0003.36,0003.27
2024-03-08 15:08:00,SystemResetWarning,0831.9,4.99,000.00,018.8,017.8,000.0,027.5,020.5,18.5,0000.0,0004.02,0003.37,0003.28
2024-03-08 15:09:00,SystemResetWarning,0831.9,5.00,000.00,018.8,017.7,000.0,027.5,020.4,18.6,0000.0,0004.06,0003.38,0003.29
2024-03-08 15:10:00,SystemResetWarning,0831.9,5.00,000.00,018.8,017.7,000.0,027.5,020.4,18.7,0000.0,0004.14,0003.40,0003.30
2024-03-08 15:11:00,SystemResetWarning,0832.0,5.01,000.00,018.8,018.1,000.0,027.6,020.6,18.7,0000.0,0004.06,0003.39,0003.29
2024-03-08 15:12:00,SystemResetWarning,0832.0,5.00,000.00,019.0,019.0,000.0,027.7,021.2,18.6,0000.0,0004.02,0003.39,0003.30
2024-03-08 15:13:00,SystemResetWarning,0832.0,4.99,000.00,019.2,019.4,000.0,027.7,021.4,18.4,0000.0,0003.99,0003.39,0003.30
2024-03-08 15:14:00,SystemResetWarning,0832.0,5.00,000.00,019.2,019.2,000.0,027.6,021.3,18.4,0000.0,0003.96,0003.39,0003.29
2024-03-08 15:15:00,SystemResetWarning,0832.0,5.01,000.00,019.2,019.0,000.0,027.6,021.1,18.4,0000.0,0003.91,0003.37,0003.28
2024-03-08 15:16:00,SystemResetWarning,0832.0,5.00,000.00,019.2,018.8,000.0,027.6,021.0,18.4,0000.0,0003.85,0003.35,0003.28
2024-03-08 15:17:00,SystemResetWarning,0832.0,4.99,000.00,019.1,018.6,000.0,027.6,020.9,18.5,0000.0,0003.81,0003.34,0003.26
2024-03-08 15:18:00,SystemResetWarning,0832.0,4.99,000.00,019.1,018.4,000.0,027.6,020.8,18.6,0000.0,0003.85,0003.34,0003.25
2024-03-08 15:19:00,SystemResetWarning,0832.0,5.00,000.00,019.1,018.3,000.0,027.6,020.8,18.7,0000.0,0003.85,0003.32,0003.24
2024-03-08 15:20:00,SystemResetWarning,0832.0,5.02,000.00,019.0,018.2,000.0,027.6,020.7,18.8,0000.0,0003.78,0003.30,0003.22
2024-03-08 15:21:00,SystemResetWarning,0832.0,5.00,000.00,019.0,018.1,000.0,027.6,020.7,18.9,0000.0,0003.69,0003.28,0003.20
2024-03-08 15:22:00,SystemResetWarning,0832.0,5.00,000.00,018.9,018.0,000.0,027.6,020.6,18.9,0000.0,0003.67,0003.26,0003.18
2024-03-08 15:23:00,SystemResetWarning,0832.0,5.00,000.00,018.9,017.9,000.0,027.5,020.6,19.0,0000.0,0003.63,0003.25,0003.17
2024-03-08 15:24:00,SystemResetWarning,0832.0,4.99,000.00,018.9,017.9,000.0,027.5,020.5,19.1,0000.0,0003.62,0003.24,0003.16
2024-03-08 15:25:00,SystemResetWarning,0832.0,5.00,000.00,018.8,017.8,000.0,027.5,020.5,19.2,0000.0,0003.67,0003.25,0003.15
2024-03-08 15:26:00,SystemResetWarning,0832.0,5.00,000.00,018.8,017.8,000.0,027.5,020.5,19.2,0000.0,0003.68,0003.24,0003.14
2024-03-08 15:27:00,SystemResetWarning,0832.0,5.01,000.00,018.8,017.7,000.0,027.5,020.4,19.3,0000.0,0003.68,0003.22,0003.11
2024-03-08 15:28:00,SystemResetWarning,0832.0,5.00,000.00,018.7,017.7,000.0,027.4,020.4,19.3,0000.0,0003.68,0003.21,0003.10
2024-03-08 15:29:00,SystemResetWarning,0832.0,5.01,000.00,018.7,017.7,000.0,027.4,020.4,19.4,0000.0,0003.65,0003.19,0003.09
2024-03-08 15:30:00,SystemResetWarning,0832.0,5.00,000.00,018.7,017.6,000.0,027.4,020.3,19.5,0000.0,0003.58,0003.17,0003.07
2024-03-08 15:31:00,SystemResetWarning,0832.0,5.00,000.00,018.6,017.6,000.0,027.4,020.3,19.5,0000.0,0003.60,0003.17,0003.09
2024-03-08 15:32:00,SystemResetWarning,0832.0,5.00,000.00,018.6,017.6,000.0,027.4,020.3,19.5,0000.0,0003.63,0003.18,0003.09
2024-03-08 15:33:00,SystemResetWarning,0832.0,5.00,000.00,018.6,017.7,000.0,027.4,020.4,19.6,0000.0,0003.62,0003.17,0003.08
2024-03-08 15:34:00,SystemResetWarning,0832.1,5.00,000.00,018.7,018.5,000.0,027.5,020.8,19.5,0000.0,0003.62,0003.17,0003.07
2024-03-08 15:35:00,SystemResetWarning,0832.2,5.00,000.00,019.0,019.2,000.0,027.5,021.3,19.2,0000.0,0003.62,0003.16,0003.07
2024-03-08 15:36:00,SystemResetWarning,0832.1,4.99,000.00,019.1,019.2,000.0,027.5,021.3,19.0,0000.0,0004.68,0003.15,0003.06
2024-03-08 15:37:00,SystemResetWarning,0832.2,4.99,000.00,019.1,019.0,000.0,027.5,021.1,19.0,0000.0,0004.93,0003.16,0003.08
2024-03-08 15:38:00,SystemResetWarning,0832.2,5.01,000.00,019.1,018.8,000.0,027.5,021.0,19.0,0000.0,0004.91,0003.15,0003.08
2024-03-08 15:39:00,SystemResetWarning,0832.2,5.01,000.00,019.0,018.6,000.0,027.5,020.9,19.1,0000.0,0004.88,0003.15,0003.07
2024-03-08 15:40:00,SystemResetWarning,0832.2,5.00,000.00,019.0,018.5,000.0,027.5,020.8,19.1,0000.0,0004.86,0003.16,0003.07
2024-03-08 15:41:00,SystemResetWarning,0832.2,4.99,000.00,019.0,018.3,000.0,027.5,020.7,19.1,0000.0,0004.99,0003.18,0003.08
2024-03-08 15:42:00,SystemResetWarning,0832.2,4.99,000.00,018.9,018.2,000.0,027.5,020.7,19.1,0000.0,0004.97,0003.18,0003.08
2024-03-08 15:43:00,SystemResetWarning,0832.2,5.00,000.00,018.9,018.1,000.0,027.5,020.6,19.2,0000.0,0004.92,0003.18,0003.08
2024-03-08 15:44:00,SystemResetWarning,0832.2,5.00,000.00,018.9,018.0,000.0,027.5,020.6,19.3,0000.0,0004.92,0003.18,0003.10
2024-03-08 15:45:00,SystemResetWarning,0832.2,5.01,000.00,018.8,018.0,000.0,027.4,020.5,19.3,0000.0,0004.94,0003.19,0003.11
2024-03-08 15:46:00,SystemResetWarning,0832.2,5.01,000.00,018.8,017.9,000.0,027.4,020.5,19.3,0000.0,0004.91,0003.19,0003.11
2024-03-08 15:47:00,SystemResetWarning,0832.2,4.99,000.00,018.8,017.9,000.0,027.4,020.5,19.3,0000.0,0004.12,0003.20,0003.12
2024-03-08 15:48:00,SystemResetWarning,0832.2,5.00,000.00,018.7,017.8,000.0,027.4,020.4,19.4,0000.0,0003.66,0003.21,0003.12
2024-03-08 15:49:00,SystemResetWarning,0832.3,5.00,000.00,018.7,017.8,000.0,027.4,020.4,19.4,0000.0,0003.66,0003.21,0003.13
2024-03-08 15:50:00,SystemResetWarning,0832.3,5.00,000.00,018.7,017.7,000.0,027.4,020.4,19.5,0000.0,0003.67,0003.21,0003.13
2024-03-08 15:51:00,SystemResetWarning,0832.3,5.00,000.00,018.6,017.7,000.0,027.3,020.3,19.5,0000.0,0003.65,0003.20,0003.12
2024-03-08 15:52:00,SystemResetWarning,0832.3,4.99,000.00,018.6,017.6,000.0,027.3,020.3,19.5,0000.0,0003.55,0003.19,0003.13
2024-03-08 15:53:00,SystemResetWarning,0832.2,5.00,000.00,018.6,017.6,000.0,027.3,020.3,19.4,0000.0,0003.57,0003.20,0003.13
2024-03-08 15:54:00,SystemResetWarning,0832.2,5.00,000.00,018.6,017.6,000.0,027.3,020.3,19.5,0000.0,0003.61,0003.21,0003.15
2024-03-08 15:55:00,SystemResetWarning,0832.2,5.00,000.00,018.5,017.6,000.0,027.3,020.3,19.5,0000.0,0003.66,0003.23,0003.16
2024-03-08 15:56:00,SystemResetWarning,0832.3,5.02,000.00,018.5,017.6,000.0,027.3,020.2,19.5,0000.0,0003.72,0003.23,0003.15
2024-03-08 15:57:00,SystemResetWarning,0832.3,5.00,000.00,018.5,017.7,000.0,027.3,020.3,19.4,0000.0,0003.73,0003.23,0003.15
2024-03-08 15:58:00,SystemResetWarning,0832.3,5.00,000.00,018.6,018.5,000.0,027.4,020.8,19.2,0000.0,0003.74,0003.24,0003.15
2024-03-08 15:59:00,SystemResetWarning,0832.4,5.00,000.00,018.9,019.3,000.0,027.5,021.3,18.9,0000.0,0003.68,0003.23,0003.16
